Погода в Клетине

Россия / Ивановская область     56°47′12″N   41°39′12″E
темп.,
°C
ветер,
м/с
пор.,
м/с
влажн.,
%
обл.,
%
осадки,
мм/ч
давл.,
гПа
погр.,
м
7 мая, пт
пт700:00+11юз51180100 0.0 1007906
03:00+9зюз3688100 0.2 1008449
06:00+8юз2687100 0.2 1008477
09:00+10юз3570100 0.2 1009912
12:00+11зюз4652100 0.3 10101695
15:00+13зюз5837100 0.3 10102536
18:00+12зюз36481 0.0 10111626
21:00+7ююз22670 0.0 101431
8 мая, сб
сб800:00+5ю3573100 0.0 101587
03:00+5ююв37785 0.0 1015135
06:00+6ююв397329 0.0 1015264
09:00+12ююв51049100 0.0 10141211
12:00+13ююв61149100 0.0 10111530
15:00+15юв71351100 0.0 10081522
18:00+10ююв61482100 1.4 10061080
21:00+10ююв61585100 3.8 10041085
9 мая, вс
вс900:00+11ю51195100 0.4 1003842
03:00+10ю3897100 1.8 1004430
06:00+10ююз5995100 2.5 1004769
09:00+10ююз5774100 2.7 10071315
12:00+6зсз4789100 0.1 1012664
15:00+7сз4982100 0.2 10151038
18:00+8сз4972100 0.1 10181324
21:00+5сз288878 0.1 1021222
10 мая, пн
пн1000:00+3ссз28935 0.0 1023162
03:00+2ссз25960 0.0 1026116
06:00+4ссз24850 0.0 1028145
09:00+10с25555 0.0 1029878
12:00+14ссз23425 0.0 10291500
15:00+15ссз23395 0.0 10291638
18:00+14ссв23511 0.0 1029244
21:00+8св11685 0.0 103010
11 мая, вт
вт1100:00+7зюз006799 0.0 103010
03:00+8з116339 0.0 103110
06:00+9юз006799 0.0 103239
09:00+15ююз114884 0.0 1032594
12:00+19юв0144100 0.0 10311198
15:00+19ссв1145100 0.0 10301383
18:00+18св126279 0.0 1030124
21:00+12юв127969 0.0 103011